Regional Weather Roundup
Issued by NWS

Home | Current Version | Previous Version | Graphics & Text | Print | Product List | Glossary On
Versions: 1 2 3 4 5 6 7 8 9 10 11 12 13 14 15 16 17 18 19 20 21 22 23 24 25 26 27 28 29 30 31 32 33 34 35 36 37 38 39 40 41 42 43 44 45 46 47 48 49 50
000
ASUS43 KDTX 041210
RWRMI
MICHIGAN HOURLY REGIONAL WEATHER ROUNDUP
NATIONAL WEATHER SERVICE DETROIT/PONTIAC MI
700 AM EST WED MAR 04 2015

NOTE: "FAIR" INDICATES FEW OR NO CLOUDS BELOW 12,000 FEET WITH NO
SIGNIFICANT WEATHER AND/OR OBSTRUCTION TO VISIBILITY.

MIZ047>049-052>055-059>063-066>070-074>076-081>083-041300-
SOUTHEAST LOWER MICHIGAN

CITY           SKY/WX    TMP DP  RH WIND       PRES   REMARKS
ADRIAN         CLOUDY    31  23  72 W5        29.90R
6HR MIN TEMP:  30; 6HR MAX TEMP:  34;

ALMA           MOCLDY    25  18  74 W10       29.87R
ANN ARBOR      CLOUDY    29  23  78 W7        29.89R
BAD AXE        CLOUDY    25  21  84 W8        29.84R
DETROIT CITY   CLOUDY    32  22  66 W7        29.89R
6HR MIN TEMP:  32; 6HR MAX TEMP:  36;

DETROIT        CLOUDY    31  23  72 SW6       29.90R
6HR MIN TEMP:  31; 6HR MAX TEMP:  35;

FLINT          CLOUDY    30  21  69 W9        29.87R
6HR MIN TEMP:  29; 6HR MAX TEMP:  31;

GROSSE ILE     CLOUDY    30  25  80 SW3       29.89R
HILLSDALE      CLOUDY    30  25  82 W7        29.87R
6HR MIN TEMP:  30; 6HR MAX TEMP:  33;

HOWELL         CLOUDY    28  23  80 W7        29.87R
6HR MIN TEMP:  28; 6HR MAX TEMP:  30;


CITY           SKY/WX    TMP DP  RH WIND       PRES   REMARKS
JACKSON        CLOUDY    29  23  78 W8        29.88R
6HR MIN TEMP:  29; 6HR MAX TEMP:  31;

LAMBERTVILLE   CLOUDY    32  25  74 CALM      29.91R
LANSING        CLOUDY    29  20  69 W8        29.88R
6HR MIN TEMP:  29; 6HR MAX TEMP:  29;

LAPEER         NOT AVBL
MASON          CLOUDY    28  23  79 W3        29.88R
6HR MIN TEMP:  28; 6HR MAX TEMP:  30;

MONROE         CLOUDY    30  25  80 W3        29.89R
MT. CLEMENS    CLOUDY    30  22  73 W8        29.86R
6HR MIN TEMP:  30; 6HR MAX TEMP:  33;

PONTIAC        CLOUDY    28  22  78 W10       29.86R
6HR MIN TEMP:  28; 6HR MAX TEMP:  30;

PORT HOPE        N/A     24  18  77 VRB6      29.82R
6HR MIN TEMP:  23; 6HR MAX TEMP:  28;

PORT HURON     CLOUDY    28  21  74 SW3       29.88R
TRI CITIES     MOCLDY    25  17  72 W9        29.86R
6HR MIN TEMP:  25; 6HR MAX TEMP:  30;

YPSILANTI      CLOUDY    33  23  66 W7        29.89R
6HR MIN TEMP:  32; 6HR MAX TEMP:  37;

$$
MIZ043>046-050>051-056>058-064>065-071>073-077>080-041300-
SOUTHWEST LOWER MICHIGAN

CITY           SKY/WX    TMP DP  RH WIND       PRES   REMARKS
BATTLE CREEK   CLOUDY    30  22  72 W9        29.90R
6HR MIN TEMP:  30; 6HR MAX TEMP:  31;

BENTON HARBOR  CLOUDY    28  21  75 NW13G18   29.96R
6HR MIN TEMP:  28; 6HR MAX TEMP:  31;

BIG RAPIDS     FLURRIES  22  18  85 W5        29.85R
6HR MIN TEMP:  22; 6HR MAX TEMP:  28;

COLDWATER      CLOUDY    30  24  80 W8        29.91R
6HR MIN TEMP:  29; 6HR MAX TEMP:  32;

HOLLAND        MOCLDY    26  17  68 NW8       29.94R
6HR MIN TEMP:  26; 6HR MAX TEMP:  32;

GRAND RAPIDS   MOCLDY    26  16  65 NW16      29.91R
6HR MIN TEMP:  25; 6HR MAX TEMP:  30;

KALAMAZOO      CLOUDY    30  21  69 W8        29.92R
MARSHALL       CLOUDY    28  22  78 W6        29.89R
MUSKEGON       PTCLDY    23  13  65 NW9G17    29.94R
6HR MIN TEMP:  23; 6HR MAX TEMP:  31;

$$
MIZ016>042-041300-
NORTHERN LOWER MICHIGAN

CITY           SKY/WX    TMP DP  RH WIND       PRES   REMARKS
ALPENA         CLOUDY    18  10  71 NW10      29.83R
6HR MIN TEMP:  18; 6HR MAX TEMP:  26; 6HR PCP: TRACE;

BEAVER ISLAND  CLOUDY    14   8  77 NW7       29.86R
6HR MIN TEMP:  14; 6HR MAX TEMP:  22;

BELLAIRE       FLURRIES  19  12  73 NW5       29.86R
6HR MIN TEMP:  19; 6HR MAX TEMP:  27;

CADILLAC       FLURRIES  19  13  78 W8        29.82R
CHARLEVOIX     CLOUDY    15   9  76 CALM      29.89R
FRANKFORT      MOSUNNY   18  10  69 NW15      29.90R
GAYLORD        LGT SNOW  13  10  88 NW8       29.79R FOG
6HR MIN TEMP:  14; 6HR MAX TEMP:  24; 6HR PCP: TRACE;

GRAYLING       FLURRIES  16  11  78 W5        29.81R
6HR MIN TEMP:  16; 6HR MAX TEMP:  25;

HARBOR SPRINGS CLOUDY    15   6  66 NW7       29.84R
HOUGHTON LAKE  CLOUDY    17  11  77 W6        29.83R
6HR MIN TEMP:  17; 6HR MAX TEMP:  25; 6HR PCP:  0.01;

MANISTEE       PTCLDY    21   7  53 NW14      29.91R
OSCODA         FLURRIES  22  19  91 CALM      29.83R
PELLSTON       CLOUDY    14   5  67 NW16G23   29.84R WCI  -2
6HR MIN TEMP:  14; 6HR MAX TEMP:  26; 6HR PCP: TRACE;

TRAVERSE CITY  FLURRIES  21  12  68 W14       29.86R
6HR MIN TEMP:  19; 6HR MAX TEMP:  27; 6HR PCP: TRACE;

$$
MIZ007>008-015-041300-
EASTERN UPPER MICHIGAN

CITY           SKY/WX    TMP DP  RH WIND       PRES   REMARKS
KINROSS        CLOUDY    10   5  79 W16G26    29.80R WCI  -7
6HR MIN TEMP:  10; 6HR MAX TEMP:  23;

MACKINAC ISLAN CLOUDY    13   6  71 NW13G22   29.82S WCI  -1
6HR MIN TEMP:  13; 6HR MAX TEMP:  22;

NEWBERRY       LGT SNOW   8   5  85 NW6       29.82R
S. S. MARIE    CLOUDY     9   3  77 W8        29.80R
6HR MIN TEMP:   9; 6HR MAX TEMP:  20; 6HR PCP: TRACE;

$$
MIZ004>006-011>014-085-041300-
CENTRAL UPPER MICHIGAN

CITY           SKY/WX    TMP DP  RH WIND       PRES   REMARKS
MANISTIQUE     FLURRIES  11   7  83 NW5       29.86R
6HR MIN TEMP:  10; 6HR MAX TEMP:  21;

ESCANABA       CLEAR     10  -2  56 NW8       29.91R
6HR MIN TEMP:   9; 6HR MAX TEMP:  19;

MENOMINEE      CLEAR      9  -2  61 NW13      29.92R WCI  -7
6HR MIN TEMP:   9; 6HR MAX TEMP:  21;

SAWYER-GWINN   CLEAR      5  -4  66 NW9       29.83R
$$
MIZ001>003-009>011-084-041300-
WESTERN UPPER MICHIGAN

CITY           SKY/WX    TMP DP  RH WIND       PRES   REMARKS
IRON MOUNTAIN  CLEAR      4  -5  66 W9        29.86R
6HR MIN TEMP:   4; 6HR MAX TEMP:  19;

HOUGHTON       MOCLDY     2  -4  76 NW16      29.84R WCI -18
6HR MIN TEMP:   2; 6HR MAX TEMP:  10; 6HR PCP:  0.01;

COPPER HARBOR    N/A      4  -4  69 N20G29    29.86R WCI -17
6HR MIN TEMP:   4; 6HR MAX TEMP:  12;

IRONWOOD       CLEAR     -2  -9  71 W14       29.91R WCI -21
6HR MIN TEMP:  -2; 6HR MAX TEMP:  10;

$$

ABBREVIATIONS USED IN REMARKS
   TC - TEMPERATURE IN CELSIUS
  WCI - WIND CHILL INDEX
   HX - HEAT INDEX
  VSB - VISIBILITY




USA.gov is the U.S. government's official web portal to all federal, state and local government web resources and services.